TimeMST,TemperatureF,Dew PointF,Humidity,Sea Level PressureIn,VisibilityMPH,Wind Direction,Wind SpeedMPH,Gust SpeedMPH,PrecipitationIn,Events,Conditions,WindDirDegrees,DateUTC
12:15 AM,10.4,8.6,92,29.94,10.0,NNE,5.8,-,N/A,,Clear,30,2013-02-08 07:15:00
12:55 AM,8.6,6.8,92,29.93,10.0,North,9.2,-,N/A,,Clear,360,2013-02-08 07:55:00
1:15 AM,6.8,5.0,92,29.93,10.0,NNE,4.6,-,N/A,,Clear,20,2013-02-08 08:15:00
1:35 AM,8.6,5.0,85,29.93,10.0,NNE,4.6,-,N/A,,Clear,20,2013-02-08 08:35:00
1:55 AM,6.8,5.0,92,29.93,10.0,NNE,4.6,-,N/A,,Clear,30,2013-02-08 08:55:00
2:15 AM,8.6,5.0,85,29.92,10.0,North,4.6,-,N/A,,Clear,10,2013-02-08 09:15:00
2:35 AM,8.6,5.0,85,29.92,10.0,North,4.6,-,N/A,,Clear,10,2013-02-08 09:35:00
2:55 AM,6.8,3.2,85,29.91,10.0,North,8.1,-,N/A,,Clear,10,2013-02-08 09:55:00
3:15 AM,8.6,5.0,85,29.92,10.0,Calm,Calm,-,N/A,,Clear,0,2013-02-08 10:15:00
3:35 AM,8.6,5.0,85,29.92,10.0,North,4.6,-,N/A,,Clear,10,2013-02-08 10:35:00
3:55 AM,6.8,3.2,85,29.91,10.0,North,9.2,-,N/A,,Partly Cloudy,10,2013-02-08 10:55:00
4:15 AM,8.6,5.0,85,29.90,10.0,North,6.9,-,N/A,,Mostly Cloudy,360,2013-02-08 11:15:00
4:35 AM,8.6,6.8,92,29.90,10.0,NNE,5.8,-,N/A,,Overcast,30,2013-02-08 11:35:00
5:15 AM,8.6,6.8,92,29.90,10.0,North,5.8,-,N/A,,Overcast,10,2013-02-08 12:15:00
5:55 AM,8.6,6.8,92,29.90,10.0,North,5.8,-,N/A,,Mostly Cloudy,10,2013-02-08 12:55:00
6:15 AM,8.6,6.8,92,29.90,10.0,North,6.9,-,N/A,,Mostly Cloudy,360,2013-02-08 13:15:00
6:54 AM,8.6,6.8,92,29.89,10.0,North,9.2,-,N/A,,Mostly Cloudy,360,2013-02-08 13:54:00
7:51 AM,8.6,6.8,92,29.89,10.0,North,10.4,-,N/A,,Scattered Clouds,360,2013-02-08 14:51:00
8:51 AM,8.6,5.0,85,29.88,10.0,NNE,8.1,-,N/A,,Scattered Clouds,20,2013-02-08 15:51:00
9:52 AM,10.4,6.8,85,29.86,10.0,North,10.4,-,N/A,,Partly Cloudy,360,2013-02-08 16:52:00
10:51 AM,17.6,6.8,63,29.84,10.0,ENE,3.5,-,N/A,,Clear,70,2013-02-08 17:51:00
11:51 AM,17.6,8.6,68,29.81,10.0,East,4.6,-,N/A,,Clear,80,2013-02-08 18:51:00
12:51 PM,24.8,10.4,54,29.77,10.0,Calm,Calm,-,N/A,,Clear,0,2013-02-08 19:51:00
1:51 PM,23.0,12.2,63,29.72,10.0,SE,5.8,-,N/A,,Scattered Clouds,130,2013-02-08 20:51:00
2:53 PM,24.8,12.2,59,29.71,10.0,SE,3.5,-,N/A,,Mostly Cloudy,140,2013-02-08 21:53:00
3:54 PM,24.8,15.8,69,29.72,10.0,East,4.6,-,N/A,,Overcast,100,2013-02-08 22:54:00
4:52 PM,24.8,15.8,69,29.72,10.0,East,5.8,-,N/A,,Overcast,100,2013-02-08 23:52:00
5:20 PM,24.8,19.4,80,29.73,1.0,Calm,Calm,-,N/A,Snow,Light Snow,0,2013-02-09 00:20:00
5:54 PM,23.0,21.2,93,29.72,2.0,Calm,Calm,-,N/A,Snow,Light Snow,0,2013-02-09 00:54:00
6:53 PM,24.8,21.2,86,29.72,5.0,North,15.0,-,N/A,Snow,Light Snow,350,2013-02-09 01:53:00
7:51 PM,24.8,24.8,100,29.70,10.0,North,19.6,-,N/A,Snow,Light Snow,350,2013-02-09 02:51:00
8:52 PM,26.6,23.0,86,29.71,10.0,North,15.0,-,N/A,,Overcast,360,2013-02-09 03:52:00
9:15 PM,24.8,23.0,93,29.70,10.0,North,16.1,-,N/A,,Mostly Cloudy,10,2013-02-09 04:15:00
9:35 PM,24.8,21.2,86,29.70,10.0,North,19.6,-,N/A,,Clear,360,2013-02-09 04:35:00
9:55 PM,24.8,21.2,86,29.69,10.0,North,20.7,-,N/A,,Partly Cloudy,360,2013-02-09 04:55:00
10:15 PM,24.8,21.2,86,29.68,10.0,North,20.7,-,N/A,,Mostly Cloudy,360,2013-02-09 05:15:00
11:15 PM,28.4,21.2,74,29.67,6.0,NNE,19.6,23.0,N/A,,Mostly Cloudy,20,2013-02-09 06:15:00
11:35 PM,26.6,21.2,80,29.66,10.0,North,20.7,-,N/A,,Overcast,360,2013-02-09 06:35:00
11:55 PM,24.8,21.2,86,29.67,10.0,North,19.6,-,N/A,,Overcast,360,2013-02-09 06:55:00